,,PA_Meas_PMT16A,,PR_Meas_QMR101_102,,RH_Meas_QMH101,,SR_Meas_QMS101,,TA_Meas_QMH101,,GenWind,,GenWind,
time,status,PA,status,PR,status,RH,status,SR,status,TA,status,DirAvg,status,SpdAvg,
2011-12-04, 00:00:04,VALID,917.909,VALID,0,VALID,93.5317,VALID,0,VALID,19.1958,VALID,178,VALID,0.305859,
2011-12-04, 00:01:04,VALID,917.881,VALID,0,VALID,93.6918,VALID,0,VALID,19.1373,VALID,178,VALID,0.202344,
2011-12-04, 00:02:04,VALID,917.911,VALID,0,VALID,93.8443,VALID,0.107441,VALID,19.0774,VALID,178,VALID,0,
2011-12-04, 00:03:04,VALID,917.884,VALID,0,VALID,94.0196,VALID,0,VALID,19.0593,VALID,178,VALID,0,
2011-12-04, 00:04:04,VALID,917.824,VALID,0,VALID,94.1492,VALID,0,VALID,19.0398,VALID,178,VALID,0.162891,
2011-12-04, 00:05:04,VALID,917.845,VALID,0,VALID,94.2635,VALID,0,VALID,19.0008,VALID,178,VALID,0.391406,
2011-12-04, 00:06:04,VALID,917.8,VALID,0,VALID,94.4465,VALID,0,VALID,18.9619,VALID,178,VALID,0,
2011-12-04, 00:07:04,VALID,917.788,VALID,0,VALID,94.5456,VALID,0.107441,VALID,18.9619,VALID,178,VALID,0,
2011-12-04, 00:08:04,VALID,917.741,VALID,0,VALID,94.5075,VALID,0,VALID,18.9034,VALID,178,VALID,0.430859,
2011-12-04, 00:09:04,VALID,917.705,VALID,0,VALID,94.6752,VALID,0.107441,VALID,18.8839,VALID,178,VALID,0.425,
2011-12-04, 00:10:04,VALID,917.709,VALID,0,VALID,94.7591,VALID,0,VALID,18.8839,VALID,178,VALID,0.325,
2011-12-04, 00:11:04,VALID,917.714,VALID,0,VALID,94.6828,VALID,0,VALID,18.8839,VALID,178,VALID,0.357422,
2011-12-04, 00:12:04,VALID,917.698,VALID,0,VALID,94.5913,VALID,0,VALID,18.9034,VALID,178,VALID,0.324609,
2011-12-04, 00:13:04,VALID,917.701,VALID,0,VALID,94.5227,VALID,0,VALID,18.9229,VALID,178,VALID,0.232422,
2011-12-04, 00:14:04,VALID,917.677,VALID,0,VALID,94.4694,VALID,0.107441,VALID,18.9229,VALID,178,VALID,0,
2011-12-04, 00:15:04,VALID,917.688,VALID,0,VALID,94.4999,VALID,0,VALID,18.9424,VALID,178,VALID,0,
2011-12-04, 00:16:04,VALID,917.702,VALID,0,VALID,94.4617,VALID,0,VALID,18.9229,VALID,178,VALID,0,
2011-12-04, 00:17:04,VALID,917.691,VALID,0,VALID,94.3931,VALID,0,VALID,18.8839,VALID,178,VALID,0,
2011-12-04, 00:18:04,VALID,917.689,VALID,0,VALID,94.3855,VALID,0.107441,VALID,18.8434,VALID,178,VALID,0,
2011-12-04, 00:19:04,VALID,917.687,VALID,0,VALID,94.416,VALID,0,VALID,18.8644,VALID,178,VALID,0.0746094,
2011-12-04, 00:20:04,VALID,917.707,VALID,0,VALID,94.5227,VALID,0.107441,VALID,18.8449,VALID,178,VALID,0.208203,
2011-12-04, 00:21:04,VALID,917.699,VALID,0,VALID,94.6295,VALID,0,VALID,18.8449,VALID,178,VALID,0.683594,
2011-12-04, 00:22:04,VALID,917.729,VALID,0,VALID,94.7743,VALID,0,VALID,18.824,VALID,178,VALID,0.564844,
2011-12-04, 00:23:04,VALID,917.739,VALID,0,VALID,94.8658,VALID,0.107441,VALID,18.8254,VALID,178,VALID,0.649609,
2011-12-04, 00:24:04,VALID,917.742,VALID,0,VALID,94.9192,VALID,0,VALID,18.7864,VALID,178,VALID,0.312109,
2011-12-04, 00:25:04,VALID,917.762,VALID,0,VALID,94.9954,VALID,0,VALID,18.7669,VALID,178,VALID,0.738281,
2011-12-04, 00:26:04,VALID,917.778,VALID,0,VALID,95.0488,VALID,0.107441,VALID,18.7669,VALID,178,VALID,0.647656,
2011-12-04, 00:27:04,VALID,917.749,VALID,0,VALID,95.0259,VALID,0,VALID,18.7474,VALID,178,VALID,0.589844,
2011-12-04, 00:28:04,VALID,917.74,VALID,0,VALID,94.9801,VALID,0,VALID,18.7474,VALID,178,VALID,0.694531,
2011-12-04, 00:29:04,VALID,917.751,VALID,0,VALID,94.942,VALID,0,VALID,18.7474,VALID,178,VALID,0.544922,
2011-12-04, 00:30:04,VALID,917.808,VALID,0,VALID,95.0106,VALID,0,VALID,18.7279,VALID,178,VALID,0.764844,
2011-12-04, 00:31:04,VALID,917.759,VALID,0,VALID,95.0716,VALID,0,VALID,18.7084,VALID,178,VALID,0.745313,
2011-12-04, 00:32:04,VALID,917.777,VALID,0,VALID,95.0945,VALID,0,VALID,18.707,VALID,178,VALID,0.923437,
2011-12-04, 00:33:04,VALID,917.795,VALID,0,VALID,95.1326,VALID,0,VALID,18.7474,VALID,178,VALID,0.737891,
2011-12-04, 00:34:04,VALID,917.783,VALID,0,VALID,95.1021,VALID,0,VALID,18.7474,VALID,178,VALID,0.505859,
2011-12-04, 00:35:04,VALID,917.821,VALID,0,VALID,95.0792,VALID,0,VALID,18.7878,VALID,178,VALID,0.553516,
2011-12-04, 00:36:04,VALID,917.802,VALID,0,VALID,95.0259,VALID,0,VALID,18.7864,VALID,178,VALID,0.569922,
2011-12-04, 00:37:04,VALID,917.787,VALID,0,VALID,95.0488,VALID,0,VALID,18.7864,VALID,178,VALID,0.632422,
2011-12-04, 00:38:04,VALID,917.802,VALID,0,VALID,95.1021,VALID,0,VALID,18.8059,VALID,178,VALID,0.657031,
2011-12-04, 00:39:04,VALID,917.767,VALID,0,VALID,95.125,VALID,0,VALID,18.8059,VALID,178,VALID,0.53125,
2011-12-04, 00:40:04,VALID,917.745,VALID,0,VALID,95.0869,VALID,0,VALID,18.8059,VALID,178,VALID,0.820703,
2011-12-04, 00:41:04,VALID,917.667,VALID,0,VALID,95.1402,VALID,0,VALID,18.7864,VALID,178,VALID,0.984375,
2011-12-04, 00:42:04,VALID,917.665,VALID,0,VALID,95.2393,VALID,0,VALID,18.7864,VALID,178,VALID,0.889844,
2011-12-04, 00:43:04,VALID,917.618,VALID,0,VALID,95.3842,VALID,0,VALID,18.7864,VALID,178,VALID,1.01328,
2011-12-04, 00:44:04,VALID,917.629,VALID,0,VALID,95.5595,VALID,0,VALID,18.8059,VALID,178,VALID,1.05664,
2011-12-04, 00:45:04,VALID,917.57,VALID,0,VALID,95.7501,VALID,0,VALID,18.8268,VALID,178,VALID,1.12461,
2011-12-04, 00:46:04,VALID,917.555,VALID,0,VALID,95.8873,VALID,0,VALID,18.8073,VALID,178,VALID,0.862891,
2011-12-04, 00:47:04,VALID,917.516,VALID,0,VALID,96.0245,VALID,0,VALID,18.7864,VALID,178,VALID,0.942187,
2011-12-04, 00:48:04,VALID,917.516,VALID,0,VALID,96.1313,VALID,0,VALID,18.7669,VALID,178,VALID,0.911328,
2011-12-04, 00:49:04,VALID,917.52,VALID,0,VALID,96.2533,VALID,0,VALID,18.7474,VALID,178,VALID,0.695313,
2011-12-04, 00:50:04,VALID,917.527,VALID,0,VALID,96.3447,VALID,0,VALID,18.7279,VALID,178,VALID,0.341016,
2011-12-04, 00:51:04,VALID,917.491,VALID,0,VALID,96.421,VALID,0,VALID,18.7279,VALID,178,VALID,0.633203,
2011-12-04, 00:52:04,VALID,917.511,VALID,0,VALID,96.4591,VALID,0,VALID,18.6694,VALID,178,VALID,0.419141,
2011-12-04, 00:53:04,VALID,917.488,VALID,0,VALID,96.5124,VALID,0,VALID,18.6694,VALID,178,VALID,0.583203,
2011-12-04, 00:54:04,VALID,917.471,VALID,0,VALID,96.5887,VALID,0,VALID,18.6694,VALID,178,VALID,0.785156,
2011-12-04, 00:55:04,VALID,917.422,VALID,0,VALID,96.6344,VALID,0,VALID,18.6708,VALID,178,VALID,0.571875,
2011-12-04, 00:56:04,VALID,917.395,VALID,0,VALID,96.6725,VALID,0,VALID,18.6304,VALID,178,VALID,0.610937,
2011-12-04, 00:57:04,VALID,917.357,VALID,0,VALID,96.7335,VALID,0,VALID,18.6319,VALID,178,VALID,0.611328,
2011-12-04, 00:58:04,VALID,917.327,VALID,0,VALID,96.7411,VALID,0,VALID,18.6124,VALID,178,VALID,0.661719,
2011-12-04, 00:59:04,VALID,917.302,VALID,0,VALID,96.7869,VALID,0,VALID,18.5914,VALID,178,VALID,0.467578,
2011-12-04, 01:00:04,VALID,917.298,VALID,0,VALID,96.8098,VALID,0,VALID,18.5914,VALID,178,VALID,0.274609,
2011-12-04, 01:01:04,VALID,917.296,VALID,0,VALID,96.8555,VALID,0,VALID,18.5914,VALID,178,VALID,0.151172,
2011-12-04, 01:02:04,VALID,917.301,VALID,0,VALID,96.8631,VALID,0,VALID,18.572,VALID,178,VALID,0.701563,
2011-12-04, 01:03:04,VALID,917.278,VALID,0,VALID,96.8631,VALID,0,VALID,18.572,VALID,178,VALID,0.50625,
2011-12-04, 01:04:04,VALID,917.283,VALID,0,VALID,96.8936,VALID,0,VALID,18.5914,VALID,178,VALID,0.413281,
2011-12-04, 01:05:04,VALID,917.284,VALID,0,VALID,96.9089,VALID,0,VALID,18.5914,VALID,178,VALID,0.463281,
2011-12-04, 01:06:04,VALID,917.292,VALID,0,VALID,96.9317,VALID,0,VALID,18.5914,VALID,178,VALID,0.544922,
2011-12-04, 01:07:04,VALID,917.267,VALID,0,VALID,96.9394,VALID,0,VALID,18.572,VALID,178,VALID,0.626953,
2011-12-04, 01:08:04,VALID,917.263,VALID,0,VALID,96.9241,VALID,0,VALID,18.572,VALID,178,VALID,0.372656,
2011-12-04, 01:09:04,VALID,917.28,VALID,0,VALID,96.9241,VALID,0,VALID,18.572,VALID,177,VALID,0.490234,
2011-12-04, 01:10:04,VALID,917.226,VALID,0,VALID,96.9698,VALID,0,VALID,18.572,VALID,178,VALID,0.817578,
2011-12-04, 01:11:04,VALID,917.218,VALID,0,VALID,96.9698,VALID,0,VALID,18.572,VALID,178,VALID,0.7,
2011-12-04, 01:12:04,VALID,917.195,VALID,0,VALID,96.9775,VALID,0,VALID,18.5914,VALID,178,VALID,0.387891,
2011-12-04, 01:13:04,VALID,917.148,VALID,0,VALID,97.0156,VALID,0,VALID,18.6109,VALID,178,VALID,0.410547,
2011-12-04, 01:14:04,VALID,917.124,VALID,0,VALID,96.9851,VALID,0,VALID,18.5914,VALID,178,VALID,0.657422,
2011-12-04, 01:15:04,VALID,917.107,VALID,0,VALID,96.9851,VALID,0,VALID,18.6319,VALID,178,VALID,0.736719,
2011-12-04, 01:16:04,VALID,917.099,VALID,0,VALID,96.9546,VALID,0,VALID,18.6109,VALID,178,VALID,0.712109,
2011-12-04, 01:17:04,VALID,917.064,VALID,0,VALID,96.9394,VALID,0,VALID,18.6304,VALID,178,VALID,0.816797,
2011-12-04, 01:18:04,VALID,917.076,VALID,0,VALID,96.9317,VALID,0,VALID,18.6499,VALID,178,VALID,0.674219,
2011-12-04, 01:19:04,VALID,917.061,VALID,0,VALID,96.886,VALID,0,VALID,18.6499,VALID,178,VALID,0.634375,
2011-12-04, 01:20:04,VALID,917.076,VALID,0,VALID,96.886,VALID,0,VALID,18.6708,VALID,178,VALID,0.208594,
2011-12-04, 01:21:04,VALID,917.074,VALID,0,VALID,96.8403,VALID,0,VALID,18.6694,VALID,178,VALID,0.568359,
2011-12-04, 01:22:04,VALID,917.088,VALID,0,VALID,96.8098,VALID,0,VALID,18.6694,VALID,178,VALID,0.620313,
2011-12-04, 01:23:04,VALID,917.061,VALID,0,VALID,96.7793,VALID,0,VALID,18.6889,VALID,178,VALID,0.823438,
2011-12-04, 01:24:04,VALID,917.032,VALID,0,VALID,96.7716,VALID,0,VALID,18.6694,VALID,178,VALID,0.692187,
2011-12-04, 01:25:04,VALID,916.985,VALID,0,VALID,96.7716,VALID,0.107441,VALID,18.6694,VALID,178,VALID,0.597266,
2011-12-04, 01:26:04,VALID,917.01,VALID,0,VALID,96.7488,VALID,0,VALID,18.6694,VALID,178,VALID,0.653516,
2011-12-04, 01:27:04,VALID,917.009,VALID,0,VALID,96.7335,VALID,0,VALID,18.6694,VALID,178,VALID,0.721484,
2011-12-04, 01:28:04,VALID,917.006,VALID,0,VALID,96.7335,VALID,0,VALID,18.6889,VALID,178,VALID,0.693359,
2011-12-04, 01:29:04,VALID,917.055,VALID,0,VALID,96.7183,VALID,0,VALID,18.6694,VALID,178,VALID,0.441797,
2011-12-04, 01:30:04,VALID,917.084,VALID,0,VALID,96.7107,VALID,0,VALID,18.6499,VALID,178,VALID,0.697266,
2011-12-04, 01:31:04,VALID,917.114,VALID,0,VALID,96.6802,VALID,0,VALID,18.6304,VALID,178,VALID,1.05234,
2011-12-04, 01:32:04,VALID,917.092,VALID,0,VALID,96.6497,VALID,0,VALID,18.6304,VALID,178,VALID,0.828516,
2011-12-04, 01:33:04,VALID,917.13,VALID,0,VALID,96.5963,VALID,0,VALID,18.6109,VALID,178,VALID,0.782422,
2011-12-04, 01:34:04,VALID,917.098,VALID,0,VALID,96.5429,VALID,0,VALID,18.5914,VALID,178,VALID,0.892969,
2011-12-04, 01:35:04,VALID,917.094,VALID,0,VALID,96.5429,VALID,0,VALID,18.6109,VALID,178,VALID,0.804688,
2011-12-04, 01:36:04,VALID,917.095,VALID,0,VALID,96.5201,VALID,0,VALID,18.6124,VALID,178,VALID,0.854688,
2011-12-04, 01:37:04,VALID,917.099,VALID,0,VALID,96.5277,VALID,0,VALID,18.5914,VALID,178,VALID,0.885156,
2011-12-04, 01:38:04,VALID,917.061,VALID,0,VALID,96.5658,VALID,0,VALID,18.5914,VALID,177,VALID,1.11172,
2011-12-04, 01:39:04,VALID,917.061,VALID,0,VALID,96.5734,VALID,0,VALID,18.5914,VALID,177,VALID,0.478516,
2011-12-04, 01:40:04,VALID,917.091,VALID,0,VALID,96.5963,VALID,0,VALID,18.5914,VALID,177,VALID,0.409766,
2011-12-04, 01:41:04,VALID,917.048,VALID,0,VALID,96.6115,VALID,0.107441,VALID,18.5914,VALID,178,VALID,1.05039,
2011-12-04, 01:42:04,VALID,917.034,VALID,0,VALID,96.6115,VALID,0.107441,VALID,18.5914,VALID,110,VALID,1.42617,
2011-12-04, 01:43:04,VALID,917.01,VALID,0,VALID,96.6573,VALID,0.107441,VALID,18.5914,VALID,122,VALID,1.38086,
2011-12-04, 01:44:04,VALID,916.986,VALID,0,VALID,96.6649,VALID,0,VALID,18.5914,VALID,122,VALID,1.0793,
2011-12-04, 01:45:04,VALID,916.951,VALID,0,VALID,96.7183,VALID,0,VALID,18.5914,VALID,122,VALID,0.999609,
2011-12-04, 01:46:04,VALID,916.967,VALID,0,VALID,96.764,VALID,0,VALID,18.5914,VALID,123,VALID,1.13984,
2011-12-04, 01:47:04,VALID,916.962,VALID,0,VALID,96.7869,VALID,0,VALID,18.5914,VALID,123,VALID,0.898047,
2011-12-04, 01:48:04,VALID,916.943,VALID,0,VALID,96.8098,VALID,0,VALID,18.5914,VALID,124,VALID,0.761328,
2011-12-04, 01:49:04,VALID,916.947,VALID,0,VALID,96.8174,VALID,0,VALID,18.5914,VALID,124,VALID,0.247656,
2011-12-04, 01:50:04,VALID,916.965,VALID,0,VALID,96.8326,VALID,0,VALID,18.5914,VALID,124,VALID,0.1625,
2011-12-04, 01:51:04,VALID,916.98,VALID,0,VALID,96.8784,VALID,0,VALID,18.5914,VALID,124,VALID,0.0710938,
2011-12-04, 01:52:04,VALID,916.965,VALID,0,VALID,96.8555,VALID,0,VALID,18.6109,VALID,123,VALID,0.213672,
2011-12-04, 01:53:04,VALID,916.995,VALID,0,VALID,96.8784,VALID,0,VALID,18.6109,VALID,124,VALID,0.320313,
2011-12-04, 01:54:04,VALID,916.966,VALID,0,VALID,96.9089,VALID,0,VALID,18.6109,VALID,124,VALID,0.182422,
2011-12-04, 01:55:04,VALID,916.934,VALID,0,VALID,96.8936,VALID,0,VALID,18.6109,VALID,124,VALID,0.195703,
2011-12-04, 01:56:04,VALID,916.915,VALID,0,VALID,96.8936,VALID,0.107441,VALID,18.6109,VALID,124,VALID,0.137109,
2011-12-04, 01:57:04,VALID,916.919,VALID,0,VALID,96.886,VALID,0.107441,VALID,18.6304,VALID,123,VALID,0.121875,
2011-12-04, 01:58:04,VALID,916.922,VALID,0,VALID,96.8631,VALID,0,VALID,18.6304,VALID,123,VALID,0.128906,
2011-12-04, 01:59:04,VALID,916.957,VALID,0,VALID,96.8479,VALID,0,VALID,18.6095,VALID,123,VALID,0.174219,
2011-12-04, 02:00:04,VALID,916.936,VALID,0,VALID,96.886,VALID,0.107441,VALID,18.6499,VALID,124,VALID,0.00742187,
2011-12-04, 02:01:04,VALID,916.935,VALID,0,VALID,96.9089,VALID,0.107441,VALID,18.6485,VALID,124,VALID,0,
2011-12-04, 02:02:04,VALID,916.958,VALID,0,VALID,96.8707,VALID,0.107441,VALID,18.6694,VALID,124,VALID,0,
2011-12-04, 02:03:04,VALID,916.925,VALID,0,VALID,96.8784,VALID,0,VALID,18.6889,VALID,124,VALID,0,
2011-12-04, 02:04:04,VALID,916.898,VALID,0,VALID,96.8326,VALID,0,VALID,18.7084,VALID,123,VALID,0.135547,
2011-12-04, 02:05:04,VALID,916.915,VALID,0,VALID,96.8021,VALID,0,VALID,18.7084,VALID,124,VALID,0.26875,
2011-12-04, 02:06:04,VALID,916.892,VALID,0,VALID,96.7259,VALID,0.107441,VALID,18.7084,VALID,124,VALID,0.467187,
2011-12-04, 02:07:04,VALID,916.863,VALID,0,VALID,96.703,VALID,0,VALID,18.7084,VALID,124,VALID,0.455469,
2011-12-04, 02:08:04,VALID,916.882,VALID,0,VALID,96.703,VALID,0,VALID,18.7084,VALID,124,VALID,0.470313,
2011-12-04, 02:09:04,VALID,916.861,VALID,0,VALID,96.6954,VALID,0.107441,VALID,18.7474,VALID,124,VALID,0.500781,
2011-12-04, 02:10:04,VALID,916.889,VALID,0,VALID,96.6497,VALID,0,VALID,18.7474,VALID,124,VALID,0.758984,
2011-12-04, 02:11:04,VALID,916.865,VALID,0,VALID,96.6268,VALID,0.107441,VALID,18.7265,VALID,130,VALID,0.723437,
2011-12-04, 02:12:04,VALID,916.876,VALID,0,VALID,96.5429,VALID,0.107441,VALID,18.7474,VALID,145,VALID,0.574609,
2011-12-04, 02:13:04,VALID,916.847,VALID,0,VALID,96.4057,VALID,0,VALID,18.7669,VALID,144,VALID,0.392188,
2011-12-04, 02:14:04,VALID,916.846,VALID,0,VALID,96.2533,VALID,0.107441,VALID,18.7864,VALID,144,VALID,0.647266,
2011-12-04, 02:15:04,VALID,916.848,VALID,0,VALID,96.1084,VALID,0,VALID,18.8254,VALID,145,VALID,0.406641,
2011-12-04, 02:16:04,VALID,916.854,VALID,0,VALID,95.9636,VALID,0,VALID,18.8449,VALID,144,VALID,0.228125,
2011-12-04, 02:17:04,VALID,916.827,VALID,0,VALID,95.8568,VALID,0,VALID,18.8839,VALID,144,VALID,0.265625,
2011-12-04, 02:18:04,VALID,916.853,VALID,0,VALID,95.6967,VALID,0,VALID,18.8839,VALID,144,VALID,0,
2011-12-04, 02:19:04,VALID,916.877,VALID,0,VALID,95.5367,VALID,0,VALID,18.8839,VALID,144,VALID,0.00585938,
2011-12-04, 02:20:04,VALID,916.854,VALID,0,VALID,95.4071,VALID,0,VALID,18.8839,VALID,144,VALID,0.0914062,
2011-12-04, 02:21:04,VALID,916.842,VALID,0,VALID,95.2851,VALID,0,VALID,18.9034,VALID,145,VALID,0.251563,
2011-12-04, 02:22:04,VALID,916.903,VALID,0,VALID,95.3232,VALID,0,VALID,18.9229,VALID,144,VALID,0.310937,
2011-12-04, 02:23:04,VALID,916.902,VALID,0,VALID,95.3842,VALID,0.107441,VALID,18.9424,VALID,145,VALID,0.779688,
2011-12-04, 02:24:04,VALID,916.917,VALID,0,VALID,95.5062,VALID,0,VALID,18.9424,VALID,145,VALID,0.712891,
2011-12-04, 02:25:04,VALID,916.892,VALID,0,VALID,95.5671,VALID,0,VALID,18.9229,VALID,145,VALID,0.355078,
2011-12-04, 02:26:04,VALID,916.949,VALID,0,VALID,95.6815,VALID,0,VALID,18.9424,VALID,145,VALID,0.0628906,
2011-12-04, 02:27:04,VALID,916.958,VALID,0,VALID,95.6662,VALID,0,VALID,18.9229,VALID,145,VALID,0.160547,
2011-12-04, 02:28:04,VALID,916.991,VALID,0,VALID,95.6815,VALID,0,VALID,18.8839,VALID,145,VALID,0.122656,
2011-12-04, 02:29:04,VALID,916.984,VALID,0,VALID,95.773,VALID,0,VALID,18.8644,VALID,145,VALID,0.0078125,
2011-12-04, 02:30:04,VALID,916.988,VALID,0,VALID,95.7654,VALID,0,VALID,18.8449,VALID,145,VALID,0,
2011-12-04, 02:31:04,VALID,916.958,VALID,0,VALID,95.8797,VALID,0,VALID,18.8449,VALID,145,VALID,0,
2011-12-04, 02:32:04,VALID,916.95,VALID,0,VALID,95.9331,VALID,0,VALID,18.8449,VALID,145,VALID,0.604688,
2011-12-04, 02:33:04,VALID,916.903,VALID,0,VALID,96.0017,VALID,0.107441,VALID,18.8254,VALID,93,VALID,0.271484,
2011-12-04, 02:34:04,VALID,916.885,VALID,0,VALID,96.0932,VALID,0,VALID,18.8449,VALID,93,VALID,0,
2011-12-04, 02:35:04,VALID,916.842,VALID,0,VALID,96.1313,VALID,0,VALID,18.8449,VALID,93,VALID,0,
2011-12-04, 02:36:04,VALID,916.809,VALID,0,VALID,96.1923,VALID,0,VALID,18.8449,VALID,93,VALID,0,
2011-12-04, 02:37:04,VALID,916.763,VALID,0,VALID,96.0703,VALID,0,VALID,18.8254,VALID,93,VALID,0,
2011-12-04, 02:38:04,VALID,916.693,VALID,0,VALID,96.0779,VALID,0,VALID,18.7864,VALID,93,VALID,0,
2011-12-04, 02:39:04,VALID,916.651,VALID,0,VALID,96.0398,VALID,0.107441,VALID,18.7279,VALID,93,VALID,0.898438,
2011-12-04, 02:40:04,VALID,916.594,VALID,0,VALID,96.0169,VALID,0,VALID,18.7084,VALID,93,VALID,0.773828,
2011-12-04, 02:41:04,VALID,916.589,VALID,0,VALID,96.0703,VALID,0,VALID,18.7279,VALID,93,VALID,0.619531,
2011-12-04, 02:42:04,VALID,916.543,VALID,0,VALID,96.0093,VALID,0,VALID,18.7084,VALID,93,VALID,0.715625,
2011-12-04, 02:43:04,VALID,916.502,VALID,0,VALID,96.055,VALID,0,VALID,18.7084,VALID,93,VALID,0.580078,
2011-12-04, 02:44:04,VALID,916.466,VALID,0,VALID,96.055,VALID,0,VALID,18.6889,VALID,93,VALID,0.751172,
2011-12-04, 02:45:04,VALID,916.468,VALID,0,VALID,96.0932,VALID,0,VALID,18.6694,VALID,93,VALID,0.838672,
2011-12-04, 02:46:04,VALID,916.434,VALID,0,VALID,96.0855,VALID,0,VALID,18.6694,VALID,93,VALID,0.841016,
2011-12-04, 02:47:04,VALID,916.419,VALID,0,VALID,96.1618,VALID,0,VALID,18.6694,VALID,94,VALID,0.876562,
2011-12-04, 02:48:04,VALID,916.399,VALID,0,VALID,96.116,VALID,0,VALID,18.6694,VALID,100,VALID,0.923047,
2011-12-04, 02:49:04,VALID,916.377,VALID,0,VALID,96.1846,VALID,0,VALID,18.6304,VALID,99,VALID,0.555859,
2011-12-04, 02:50:04,VALID,916.365,VALID,0,VALID,96.2304,VALID,0.107441,VALID,18.6109,VALID,113,VALID,0.839453,
2011-12-04, 02:51:04,VALID,916.37,VALID,0,VALID,96.2914,VALID,0,VALID,18.6109,VALID,113,VALID,0.587891,
2011-12-04, 02:52:04,VALID,916.385,VALID,0,VALID,96.3447,VALID,0,VALID,18.5914,VALID,113,VALID,0.507031,
2011-12-04, 02:53:04,VALID,916.367,VALID,0,VALID,96.4057,VALID,0,VALID,18.5914,VALID,114,VALID,0.608203,
2011-12-04, 02:54:04,VALID,916.394,VALID,0,VALID,96.4896,VALID,0.107441,VALID,18.572,VALID,113,VALID,0.316016,
2011-12-04, 02:55:04,VALID,916.356,VALID,0,VALID,96.5201,VALID,0,VALID,18.572,VALID,113,VALID,0.361328,
2011-12-04, 02:56:04,VALID,916.316,VALID,0,VALID,96.5506,VALID,0.107441,VALID,18.572,VALID,114,VALID,0.422266,
2011-12-04, 02:57:04,VALID,916.312,VALID,0,VALID,96.6115,VALID,0.107441,VALID,18.5525,VALID,113,VALID,0.173438,
2011-12-04, 02:58:04,VALID,916.329,VALID,0,VALID,96.6573,VALID,0,VALID,18.5316,VALID,113,VALID,0.146875,
2011-12-04, 02:59:04,VALID,916.358,VALID,0,VALID,96.6954,VALID,0.107441,VALID,18.5525,VALID,113,VALID,0,
2011-12-04, 03:00:04,VALID,916.315,VALID,0,VALID,96.7259,VALID,0,VALID,18.572,VALID,114,VALID,0,
2011-12-04, 03:01:04,VALID,916.266,VALID,0,VALID,96.764,VALID,0,VALID,18.5914,VALID,114,VALID,0,
2011-12-04, 03:02:04,VALID,916.256,VALID,0,VALID,96.8021,VALID,0,VALID,18.5914,VALID,113,VALID,0,
2011-12-04, 03:03:04,VALID,916.185,VALID,0,VALID,96.7945,VALID,0,VALID,18.572,VALID,113,VALID,0.272266,
2011-12-04, 03:04:04,VALID,916.1,VALID,0,VALID,96.7564,VALID,0,VALID,18.5525,VALID,113,VALID,0.813281,
2011-12-04, 03:05:04,VALID,916.115,VALID,0,VALID,96.764,VALID,0,VALID,18.5135,VALID,114,VALID,0.827734,
2011-12-04, 03:06:04,VALID,916.075,VALID,0,VALID,96.8021,VALID,0,VALID,18.5135,VALID,114,VALID,0.958594,
2011-12-04, 03:07:04,VALID,916.064,VALID,0,VALID,96.7793,VALID,0,VALID,18.5135,VALID,113,VALID,0.989844,
2011-12-04, 03:08:04,VALID,916.07,VALID,0,VALID,96.7411,VALID,0.107441,VALID,18.5135,VALID,113,VALID,0.75,
2011-12-04, 03:09:04,VALID,916.087,VALID,0,VALID,96.6878,VALID,0,VALID,18.5135,VALID,114,VALID,0.494141,
2011-12-04, 03:10:04,VALID,916.08,VALID,0,VALID,96.6649,VALID,0,VALID,18.494,VALID,113,VALID,0.452734,
2011-12-04, 03:11:04,VALID,916.054,VALID,0,VALID,96.6802,VALID,0,VALID,18.4536,VALID,113,VALID,0.485938,
2011-12-04, 03:12:04,VALID,916.039,VALID,0,VALID,96.6497,VALID,0,VALID,18.4745,VALID,114,VALID,0.708984,
2011-12-04, 03:13:04,VALID,915.996,VALID,0,VALID,96.6192,VALID,0,VALID,18.4745,VALID,114,VALID,0.571875,
2011-12-04, 03:14:04,VALID,915.962,VALID,0,VALID,96.6268,VALID,0.107441,VALID,18.416,VALID,114,VALID,0.657812,
2011-12-04, 03:15:04,VALID,915.955,VALID,0,VALID,96.6573,VALID,0,VALID,18.416,VALID,113,VALID,0.595703,
2011-12-04, 03:16:04,VALID,915.956,VALID,0,VALID,96.6802,VALID,0,VALID,18.4146,VALID,113,VALID,0.557813,
2011-12-04, 03:17:04,VALID,915.97,VALID,0,VALID,96.6268,VALID,0.107441,VALID,18.4355,VALID,114,VALID,0.592578,
2011-12-04, 03:18:04,VALID,915.938,VALID,0,VALID,96.5963,VALID,0,VALID,18.4174,VALID,113,VALID,0.504687,
2011-12-04, 03:19:04,VALID,915.972,VALID,0,VALID,96.5811,VALID,0,VALID,18.4174,VALID,114,VALID,0.421094,
2011-12-04, 03:20:04,VALID,915.983,VALID,0,VALID,96.5887,VALID,0,VALID,18.416,VALID,114,VALID,0.518359,
2011-12-04, 03:21:04,VALID,915.954,VALID,0,VALID,96.6039,VALID,0,VALID,18.4369,VALID,113,VALID,0.466797,
2011-12-04, 03:22:04,VALID,915.94,VALID,0,VALID,96.5887,VALID,0,VALID,18.4564,VALID,114,VALID,0.348047,
2011-12-04, 03:23:04,VALID,915.929,VALID,0,VALID,96.5811,VALID,0,VALID,18.4564,VALID,114,VALID,0.307031,
2011-12-04, 03:24:04,VALID,915.915,VALID,0,VALID,96.5201,VALID,0,VALID,18.4564,VALID,113,VALID,0.160547,
2011-12-04, 03:25:04,VALID,915.901,VALID,0,VALID,96.4819,VALID,0,VALID,18.4369,VALID,114,VALID,0,
2011-12-04, 03:26:04,VALID,915.896,VALID,0,VALID,96.4286,VALID,0,VALID,18.4174,VALID,114,VALID,0.0261719,
2011-12-04, 03:27:04,VALID,915.892,VALID,0,VALID,96.4896,VALID,0,VALID,18.4174,VALID,114,VALID,0.284766,
2011-12-04, 03:28:04,VALID,915.875,VALID,0,VALID,96.5429,VALID,0,VALID,18.4174,VALID,113,VALID,0.273828,
2011-12-04, 03:29:04,VALID,915.881,VALID,0,VALID,96.5734,VALID,0,VALID,18.4369,VALID,113,VALID,0.188281,
2011-12-04, 03:30:04,VALID,915.883,VALID,0,VALID,96.5734,VALID,0,VALID,18.4369,VALID,114,VALID,0.398438,
2011-12-04, 03:31:04,VALID,915.897,VALID,0,VALID,96.5582,VALID,0,VALID,18.4564,VALID,113,VALID,0.483984,
2011-12-04, 03:32:04,VALID,915.893,VALID,0,VALID,96.5048,VALID,0,VALID,18.4564,VALID,114,VALID,0.664063,
2011-12-04, 03:33:04,VALID,915.881,VALID,0,VALID,96.4819,VALID,0,VALID,18.4355,VALID,114,VALID,0.836719,
2011-12-04, 03:34:04,VALID,915.887,VALID,0,VALID,96.4438,VALID,0,VALID,18.3965,VALID,113,VALID,1.04023,
2011-12-04, 03:35:04,VALID,915.867,VALID,0,VALID,96.4438,VALID,0,VALID,18.377,VALID,123,VALID,0.984766,
2011-12-04, 03:36:04,VALID,915.839,VALID,0,VALID,96.4743,VALID,0,VALID,18.3575,VALID,123,VALID,0.565234,
2011-12-04, 03:37:04,VALID,915.848,VALID,0,VALID,96.4972,VALID,0.107441,VALID,18.3575,VALID,123,VALID,0.51875,
2011-12-04, 03:38:04,VALID,915.872,VALID,0,VALID,96.5048,VALID,0.107441,VALID,18.338,VALID,123,VALID,0.458594,
2011-12-04, 03:39:04,VALID,915.884,VALID,0,VALID,96.5429,VALID,0,VALID,18.3185,VALID,123,VALID,0.809375,
2011-12-04, 03:40:04,VALID,915.866,VALID,0,VALID,96.5734,VALID,0.107441,VALID,18.338,VALID,123,VALID,0.785937,
2011-12-04, 03:41:04,VALID,915.848,VALID,0,VALID,96.5811,VALID,0,VALID,18.3394,VALID,123,VALID,0.986328,
2011-12-04, 03:42:04,VALID,915.848,VALID,0,VALID,96.6268,VALID,0.107441,VALID,18.3185,VALID,123,VALID,0.951563,
2011-12-04, 03:43:04,VALID,915.872,VALID,0,VALID,96.642,VALID,0,VALID,18.2977,VALID,123,VALID,0.917969,